DAL1454 KATL-KTPA

Flight info

Callsign DAL1454
Flight time N/A
Altitude 36000
Route BANNG3 LUCKK HONID MAATY5
Aircraft A319/M-SDE3FGHIRWY/LB1

Departure

Time N/A
Airport Hartsfield Jackson Atlanta International Airport (KATL)

Arrival

Time 2026-05-05 22:50
Airport Tampa International Airport (KTPA)
Time Latitude Longitude Altitude Speed Heading
2026-05-05 22:33 28.88151 -83.29415 19335 ft 424 kts 154°
2026-05-05 22:33 28.85534 -83.27762 18906 ft 422 kts 154°
2026-05-05 22:33 28.83002 -83.26163 18467 ft 418 kts 153°
2026-05-05 22:34 28.80572 -83.24625 18023 ft 415 kts 153°
2026-05-05 22:34 28.78040 -83.23025 17542 ft 412 kts 153°
2026-05-05 22:34 28.75538 -83.21444 17093 ft 408 kts 153°
2026-05-05 22:34 28.73043 -83.19870 16648 ft 405 kts 153°
2026-05-05 22:35 28.70579 -83.18315 16207 ft 401 kts 153°
2026-05-05 22:35 28.68163 -83.16791 15765 ft 398 kts 153°
2026-05-05 22:35 28.65720 -83.15250 15315 ft 395 kts 153°
2026-05-05 22:35 28.63341 -83.13751 14897 ft 391 kts 153°
2026-05-05 22:36 28.60953 -83.12247 14452 ft 388 kts 152°
2026-05-05 22:36 28.58593 -83.10761 14007 ft 386 kts 152°
2026-05-05 22:36 28.56256 -83.09293 13584 ft 382 kts 152°
2026-05-05 22:36 28.53915 -83.07822 13139 ft 378 kts 152°
2026-05-05 22:37 28.51633 -83.06391 12704 ft 375 kts 152°
2026-05-05 22:37 28.49349 -83.04957 12270 ft 371 kts 152°
2026-05-05 22:37 28.47070 -83.03526 11830 ft 368 kts 152°
2026-05-05 22:37 28.44848 -83.02131 11375 ft 365 kts 152°
2026-05-05 22:38 28.42605 -83.00725 10914 ft 361 kts 152°
2026-05-05 22:38 28.40413 -82.99352 10480 ft 357 kts 152°
2026-05-05 22:38 28.38277 -82.98015 10249 ft 346 kts 152°
2026-05-05 22:38 28.36182 -82.96702 10049 ft 335 kts 152°
2026-05-05 22:39 28.34161 -82.95436 9858 ft 324 kts 152°
2026-05-05 22:39 28.32232 -82.94228 9655 ft 311 kts 152°
2026-05-05 22:39 28.30334 -82.93041 9245 ft 305 kts 152°
2026-05-05 22:39 28.28534 -82.91784 8857 ft 303 kts 139°
2026-05-05 22:40 28.27362 -82.89851 8501 ft 298 kts 106°
2026-05-05 22:40 28.27189 -82.87550 8197 ft 290 kts 84°
2026-05-05 22:40 28.27331 -82.85292 7856 ft 287 kts 85°
2026-05-05 22:40 28.27450 -82.83003 7500 ft 285 kts 86°
2026-05-05 22:41 28.27541 -82.80775 7217 ft 281 kts 87°
2026-05-05 22:41 28.27614 -82.78563 7049 ft 271 kts 87°
2026-05-05 22:41 28.27675 -82.76487 6849 ft 260 kts 88°
2026-05-05 22:41 28.27733 -82.74436 6539 ft 252 kts 88°
2026-05-05 22:42 28.27784 -82.72598 6116 ft 249 kts 89°
2026-05-05 22:42 28.27837 -82.70641 5660 ft 247 kts 89°
2026-05-05 22:42 28.27887 -82.68694 5301 ft 241 kts 89°
2026-05-05 22:42 28.27933 -82.66849 5102 ft 229 kts 89°
2026-05-05 22:43 28.27977 -82.65077 4905 ft 219 kts 89°
2026-05-05 22:43 28.28020 -82.63364 4692 ft 213 kts 89°
2026-05-05 22:43 28.28061 -82.61739 4537 ft 202 kts 89°
2026-05-05 22:43 28.27908 -82.60197 4313 ft 193 kts 111°
2026-05-05 22:44 28.27168 -82.58998 4122 ft 184 kts 139°
2026-05-05 22:44 28.26079 -82.58338 3851 ft 182 kts 163°
2026-05-05 22:44 28.24822 -82.58243 3568 ft 183 kts 180°
2026-05-05 22:44 28.23557 -82.58199 3265 ft 181 kts 167°
2026-05-05 22:45 28.22383 -82.57698 2959 ft 176 kts 153°
2026-05-05 22:45 28.21277 -82.57059 2600 ft 177 kts 151°
2026-05-05 22:45 28.20202 -82.56401 2332 ft 175 kts 151°
2026-05-05 22:45 28.19129 -82.55733 2301 ft 176 kts 151°
2026-05-05 22:46 28.18033 -82.55046 2297 ft 177 kts 151°
2026-05-05 22:46 28.16945 -82.54362 2294 ft 177 kts 152°
2026-05-05 22:46 28.15778 -82.53885 2307 ft 177 kts 166°
2026-05-05 22:46 28.14564 -82.53708 2223 ft 169 kts 175°
2026-05-05 22:47 28.13423 -82.53677 1964 ft 159 kts 179°
2026-05-05 22:47 28.12313 -82.53696 1898 ft 160 kts 180°
2026-05-05 22:47 28.11192 -82.53720 1907 ft 157 kts 179°
2026-05-05 22:47 28.10162 -82.53767 1764 ft 144 kts 182°
2026-05-05 22:48 28.09145 -82.53812 1556 ft 144 kts 181°
2026-05-05 22:48 28.08136 -82.53848 1371 ft 144 kts 181°
2026-05-05 22:48 28.07144 -82.53896 1167 ft 145 kts 182°
2026-05-05 22:48 28.06124 -82.53965 958 ft 145 kts 183°
2026-05-05 22:49 28.05120 -82.53973 811 ft 142 kts 177°
2026-05-05 22:49 28.04137 -82.53948 643 ft 141 kts 181°
2026-05-05 22:49 28.03148 -82.53985 461 ft 141 kts 182°
2026-05-05 22:49 28.02182 -82.54022 389 ft 137 kts 183°
2026-05-05 22:50 28.01221 -82.54054 296 ft 136 kts 183°
2026-05-05 22:50 28.00275 -82.54082 188 ft 136 kts 183°
2026-05-05 22:50 27.99331 -82.54125 54 ft 132 kts 184°
2026-05-05 22:50 27.98624 -82.54156 22 ft 47 kts 182°
2026-05-05 22:51 27.98302 -82.54168 21 ft 44 kts 181°
2026-05-05 22:51 27.98054 -82.54177 21 ft 24 kts 179°
2026-05-05 22:51 27.97882 -82.54180 20 ft 22 kts 179°
2026-05-05 22:51 27.97731 -82.54153 19 ft 21 kts 150°
2026-05-05 22:52 27.97728 -82.54076 19 ft 15 kts 41°
2026-05-05 22:52 27.97838 -82.54042 20 ft 9 kts 60°
2026-05-05 22:52 27.97867 -82.53974 21 ft 10 kts 35°
2026-05-05 22:52 27.97939 -82.53970 21 ft 11 kts 355°
2026-05-05 22:53 27.98014 -82.53973 21 ft 4 kts
2026-05-05 22:53 27.98017 -82.53972 21 ft 0 kts
2026-05-05 22:53 27.98025 -82.53969 21 ft 1 kts 26°
2026-05-05 22:53 27.98035 -82.53956 21 ft 2 kts 68°
2026-05-05 22:54 27.98034 -82.53928 22 ft 4 kts 92°
2026-05-05 22:54 27.98033 -82.53895 22 ft 3 kts 92°
2026-05-05 22:54 27.98032 -82.53881 22 ft 0 kts 93°